YB2NDX-15 Weather Reports


time (UTC)temp
F
wind
direction
speed
knots
gust
knots
rain 1hr
in
rain 24hr
in
rain mn
in
humidity
%
barometer
mb
20260506114126 87 0.0 0.0 0.00 0.00 0.00 1006.7
20260506113120 87 0.0 0.0 0.00 0.00 0.00 1006.5
20260506112113 88 0.0 0.0 0.00 0.00 0.00 1006.4
20260506111106 89 0.0 0.0 0.00 0.00 0.00 1006.3
20260506110100 89 0.0 0.0 0.00 0.00 0.00 1006.2
20260506105053 89 0.0 0.0 0.00 0.00 0.00 1006.1
20260506104047 90 0.0 0.0 0.00 0.00 0.00 1005.9
20260506102034 90 0.0 0.0 0.00 0.00 0.00 1005.6
20260506101028 91 0.0 0.0 0.00 0.00 0.00 1005.5
20260506100022 91 0.0 0.0 0.00 0.00 0.00 1005.5
20260506094009 93 0.0 0.0 0.00 0.00 0.00 1005.4
20260506093002 94 0.0 0.0 0.00 0.00 0.00 1005.2
20260506091955 94 0.0 0.0 0.00 0.00 0.00 1005.1
20260506090948 95 0.0 0.0 0.00 0.00 0.00 1005.2
20260506083929 98 0.0 0.0 0.00 0.00 0.00 1005.1
20260506082922 103 0.0 0.0 0.00 0.00 0.00 1005.2
20260506081915 117 0.0 0.0 0.00 0.00 0.00 1006.0
20260506080909 115 0.0 0.0 0.00 0.00 0.00 1006.8
20260506072843 97 0.0 0.0 0.00 0.00 0.00 1005.4
20260506071837 98 0.0 0.0 0.00 0.00 0.00 1005.4
20260506070832 98 0.0 0.0 0.00 0.00 0.00 1005.6
20260506061758 98 0.0 0.0 0.00 0.00 0.00 1006.3
20260506060751 98 0.0 0.0 0.00 0.00 0.00 1006.4
20260506050713 97 0.0 0.0 0.00 0.00 0.00 1007.1
20260506044700 96 0.0 0.0 0.00 0.00 0.00 1007.5
20260506043654 96 0.0 0.0 0.00 0.00 0.00 1007.6
20260506042648 95 0.0 0.0 0.00 0.00 0.00 1007.7
20260506041641 95 0.0 0.0 0.00 0.00 0.00 1007.8
20260506040635 95 0.0 0.0 0.00 0.00 0.00 1008.1
20260506035629 94 0.0 0.0 0.00 0.00 0.00 1008.2
20260506033613 93 0.0 0.0 0.00 0.00 0.00 1008.6
20260506032606 93 0.0 0.0 0.00 0.00 0.00 1008.8
20260506031600 93 0.0 0.0 0.00 0.00 0.00 1009.0
20260506030553 92 0.0 0.0 0.00 0.00 0.00 1009.1
20260506024541 91 0.0 0.0 0.00 0.00 0.00 1009.2
20260506023534 91 0.0 0.0 0.00 0.00 0.00 1009.3
20260506021521 90 0.0 0.0 0.00 0.00 0.00 1009.4
20260506020515 89 0.0 0.0 0.00 0.00 0.00 1009.4
20260506013456 88 0.0 0.0 0.00 0.00 0.00 1009.5
20260506012450 87 0.0 0.0 0.00 0.00 0.00 1009.5
20260506011444 87 0.0 0.0 0.00 0.00 0.00 1009.5
20260506010438 86 0.0 0.0 0.00 0.00 0.00 1009.4
20260506005431 86 0.0 0.0 0.00 0.00 0.00 1009.5
20260506004424 85 0.0 0.0 0.00 0.00 0.00 1009.4
20260506003418 85 0.0 0.0 0.00 0.00 0.00 1009.4
20260506002412 84 0.0 0.0 0.00 0.00 0.00 1009.3
20260506001406 84 0.0 0.0 0.00 0.00 0.00 1009.3
20260506000401 83 0.0 0.0 0.00 0.00 0.00 1009.1
20260505235353 83 0.0 0.0 0.00 0.00 0.00 1008.9
20260505234347 82 0.0 0.0 0.00 0.00 0.00 1008.8
20260505233340 82 0.0 0.0 0.00 0.00 0.00 1008.8
20260505232334 81 0.0 0.0 0.00 0.00 0.00 1008.7
20260505231327 81 0.0 0.0 0.00 0.00 0.00 1008.6
20260505230320 81 0.0 0.0 0.00 0.00 0.00 1008.5
20260505225314 80 0.0 0.0 0.00 0.00 0.00 1008.4
20260505223301 80 0.0 0.0 0.00 0.00 0.00 1008.4
20260505222254 80 0.0 0.0 0.00 0.00 0.00 1008.3
20260505221248 80 0.0 0.0 0.00 0.00 0.00 1008.3
20260505215235 80 0.0 0.0 0.00 0.00 0.00 1008.0
20260505213222 80 0.0 0.0 0.00 0.00 0.00 1007.9
20260505212216 80 0.0 0.0 0.00 0.00 0.00 1007.9
20260505211210 80 0.0 0.0 0.00 0.00 0.00 1008.0
20260505210203 80 0.0 0.0 0.00 0.00 0.00 1007.9
20260505205156 80 0.0 0.0 0.00 0.00 0.00 1007.9
20260505204150 80 0.0 0.0 0.00 0.00 0.00 1007.8
20260505203143 80 0.0 0.0 0.00 0.00 0.00 1007.8
20260505202137 80 0.0 0.0 0.00 0.00 0.00 1007.9
20260505201130 80 0.0 0.0 0.00 0.00 0.00 1007.9
20260505200124 80 0.0 0.0 0.00 0.00 0.00 1007.9
20260505195117 80 0.0 0.0 0.00 0.00 0.00 1007.9
20260505194111 80 0.0 0.0 0.00 0.00 0.00 1008.0
20260505192059 80 0.0 0.0 0.00 0.00 0.00 1008.2
20260505191053 80 0.0 0.0 0.00 0.00 0.00 1008.3
20260505190046 80 0.0 0.0 0.00 0.00 0.00 1008.2
20260505185039 80 0.0 0.0 0.00 0.00 0.00 1008.2
20260505184034 80 0.0 0.0 0.00 0.00 0.00 1008.4
20260505183027 81 0.0 0.0 0.00 0.00 0.00 1008.4
20260505182020 81 0.0 0.0 0.00 0.00 0.00 1008.6
20260505180008 81 0.0 0.0 0.00 0.00 0.00 1008.8
20260505175000 81 0.0 0.0 0.00 0.00 0.00 1009.0
20260505173954 81 0.0 0.0 0.00 0.00 0.00 1008.9
20260505172947 81 0.0 0.0 0.00 0.00 0.00 1008.9
20260505171941 82 0.0 0.0 0.00 0.00 0.00 1009.1
20260505170934 82 0.0 0.0 0.00 0.00 0.00 1009.3
20260505165928 83 0.0 0.0 0.00 0.00 0.00 1009.3
20260505164922 82 0.0 0.0 0.00 0.00 0.00 1009.5
20260505163916 83 0.0 0.0 0.00 0.00 0.00 1009.6
20260505162910 83 0.0 0.0 0.00 0.00 0.00 1009.6
20260505161903 83 0.0 0.0 0.00 0.00 0.00 1009.7
20260505160857 83 0.0 0.0 0.00 0.00 0.00 1009.6
20260505152831 83 0.0 0.0 0.00 0.00 0.00 1009.4
20260505151825 83 0.0 0.0 0.00 0.00 0.00 1009.2
20260505150818 83 0.0 0.0 0.00 0.00 0.00 1009.2
20260505124643 85 0.0 0.0 0.00 0.00 0.00 1008.8
20260505123639 85 0.0 0.0 0.00 0.00 0.00 1008.8
20260505122625 85 0.0 0.0 0.00 0.00 0.00 1008.8
20260505120613 86 0.0 0.0 0.00 0.00 0.00 1008.5
20260505114600 86 0.0 0.0 0.00 0.00 0.00 1007.8